Change the Weather History Date:

Sunday, November 17, 2013

  Actual Average (KRFD) Record (KRFD)
Temperature  
Mean Temperature 52 °F 38 °F  
Max Temperature 65 °F 47 °F 73 °F (1941)
Min Temperature 40 °F 30 °F 0 °F (1959)
Degree Days  
Heating Degree Days 12 27  
Month to date heating degree days 387  
Since 1 July heating degree days 940  
Cooling Degree Days 0 0  
Month to date cooling degree days 0  
Year to date cooling degree days 820  
Growing Degree Days 2 (Base 50)    
Moisture  
Dew Point 49 °F    
Average Humidity 87    
Maximum Humidity 96    
Minimum Humidity 76    
Precipitation  
Precipitation 0.88 in 0.08 in 2.70 in (1928)
Month to date precipitation 1.49  
Year to date precipitation 33.17  
Snow  
Snow 0.00 in 0.00 in 1.80 in (1926)
Month to date snowfall 0.3  
Since 1 July snowfall 0.4  
Since 1 September snowfall 0.4  
Snow Depth -    
Sea Level Pressure  
Sea Level Pressure 29.48 in    
Wind  
Wind Speed 19 mph (SW)    
Max Wind Speed 45 mph    
Max Gust Speed 67 mph    
Visibility 8 miles    
Events Rain , Thunderstorm    
T = Trace of Precipitation, MM = Missing Value Source: NWS Daily Summary

Daily Weather History Graph

Daily Weather History Graph

Search for Another Location

Airport or City:

Trip Planner

Search our weather history database for the weather conditions in past years. The results will help you decide how hot, cold, wet, or windy it might be!

Date:

Astronomy

Nov. 17, 2013 Rise Set
Actual Time 6:48 AM CST 4:33 PM CST
Civil Twilight 6:18 AM CST 5:03 PM CST
Nautical Twilight 5:44 AM CST 5:37 PM CST
Astronomical Twilight 5:11 AM CST 6:10 PM CST
Moon 4:50 PM CST (11/17) 6:42 AM CST (11/17)
Length of Visible Light 10h 45m
Length of Day
9h 44m
Full, 100% of the Moon is Illuminated
Nov 17
Full
Nov 25
Last Quarter
Dec 2
New
Dec 9
First Quarter
Dec 17
Full

Hourly Weather History & Observations

Time (CST) Temp. Windchill Dew Point Humidity Pressure Visibility Wind Dir Wind Speed Gust Speed Precip Events Conditions
12:15 AM 56.7 °F - 54.0 °F 91% 29.55 in 7.0 mi South 19.6 mph 27.6 mph N/A   Scattered Clouds
12:35 AM 56.3 °F - 53.8 °F 91% 29.54 in 7.0 mi South 16.1 mph - N/A   Clear
12:55 AM 56.5 °F - 53.8 °F 91% 29.53 in 10.0 mi South 16.1 mph 20.7 mph N/A   Clear
1:15 AM 56.8 °F - 54.1 °F 91% 29.53 in 10.0 mi SSW 11.5 mph - N/A   Mostly Cloudy
1:35 AM 56.5 °F - 54.0 °F 91% 29.53 in 7.0 mi SSW 13.8 mph - N/A   Mostly Cloudy
1:55 AM 58.1 °F - 54.9 °F 89% 29.54 in 10.0 mi SW 23.0 mph 27.6 mph N/A Rain , Thunderstorm Light Thunderstorms and Rain
2:15 AM 57.6 °F - 55.0 °F 91% 29.52 in 5.0 mi SSW 16.1 mph 29.9 mph 0.06 in Rain Light Rain
2:35 AM 56.8 °F - 54.7 °F 92% 29.49 in 10.0 mi South 11.5 mph - 0.06 in Rain Light Rain
2:55 AM 56.3 °F - 54.5 °F 94% 29.49 in 7.0 mi South 9.2 mph - 0.06 in   Scattered Clouds
3:15 AM 55.8 °F - 54.0 °F 94% 29.49 in 7.0 mi South 11.5 mph - N/A   Scattered Clouds
3:35 AM 56.3 °F - 54.5 °F 94% 29.49 in 7.0 mi South 11.5 mph - N/A   Scattered Clouds
3:55 AM 56.3 °F - 54.5 °F 94% 29.48 in 7.0 mi Calm Calm - N/A   Overcast
4:15 AM 55.8 °F - 54.3 °F 95% 29.46 in 7.0 mi Calm Calm - N/A   Overcast
4:35 AM 56.1 °F - 54.7 °F 95% 29.47 in 5.0 mi South 11.5 mph - 0.02 in Rain , Thunderstorm Light Thunderstorms and Rain
4:55 AM 56.7 °F - 55.4 °F 96% 29.46 in 5.0 mi South 11.5 mph - 0.02 in   Overcast
5:15 AM 57.2 °F - 55.6 °F 94% 29.44 in 5.0 mi SSE 15.0 mph - N/A   Overcast
5:35 AM 57.7 °F - 56.3 °F 95% 29.42 in 5.0 mi South 18.4 mph 23.0 mph N/A   Overcast
5:55 AM 58.3 °F - 56.8 °F 95% 29.41 in 5.0 mi South 17.3 mph 26.5 mph N/A   Overcast
6:15 AM 58.8 °F - 57.2 °F 94% 29.40 in 5.0 mi South 16.1 mph 21.9 mph N/A   Overcast
6:35 AM 59.5 °F - 58.1 °F 95% 29.39 in 5.0 mi South 20.7 mph - N/A   Overcast
6:55 AM 60.8 °F - 59.0 °F 94% 29.38 in 7.0 mi South 20.7 mph 25.3 mph N/A   Overcast
7:15 AM 61.2 °F - 59.4 °F 94% 29.37 in 7.0 mi South 19.6 mph 27.6 mph N/A   Overcast
7:35 AM 61.9 °F - 59.9 °F 93% 29.37 in 7.0 mi South 17.3 mph 26.5 mph N/A   Overcast
7:55 AM 62.4 °F - 60.1 °F 92% 29.36 in 10.0 mi South 23.0 mph 27.6 mph N/A   Mostly Cloudy
8:15 AM 63.5 °F - 60.8 °F 91% 29.35 in 10.0 mi South 20.7 mph - N/A   Scattered Clouds
8:35 AM 63.5 °F - 60.8 °F 91% 29.34 in 10.0 mi South 23.0 mph 27.6 mph N/A   Scattered Clouds
8:55 AM 64.2 °F - 61.2 °F 90% 29.32 in 10.0 mi South 26.5 mph 33.4 mph N/A Thunderstorm Scattered Clouds
9:15 AM 64.8 °F - 61.2 °F 88% 29.31 in 10.0 mi South 31.1 mph 35.7 mph N/A   Clear
9:35 AM 65.3 °F - 61.3 °F 87% 29.30 in 10.0 mi South 27.6 mph 33.4 mph N/A Thunderstorm Thunderstorm
9:55 AM 65.7 °F - 61.2 °F 85% 29.30 in 10.0 mi SSW 26.5 mph 34.5 mph N/A Thunderstorm Clear
10:15 AM 65.5 °F - 60.8 °F 85% 29.28 in 10.0 mi SSW 20.7 mph 32.2 mph N/A Thunderstorm Clear
10:35 AM 64.6 °F - 60.8 °F 88% 29.26 in 10.0 mi South 19.6 mph - N/A Thunderstorm Clear
10:55 AM 64.6 °F - 60.6 °F 87% 29.24 in 10.0 mi South 28.8 mph 35.7 mph N/A Thunderstorm Scattered Clouds
11:15 AM 63.3 °F - 57.0 °F 80% 29.22 in 10.0 mi South 25.3 mph 32.2 mph N/A Thunderstorm Thunderstorm
11:35 AM 61.0 °F - 55.4 °F 82% 29.20 in 10.0 mi South 15.0 mph - N/A Rain , Thunderstorm Rain
11:55 AM 60.4 °F - 55.6 °F 84% 29.18 in 10.0 mi WSW 13.8 mph 26.5 mph 0.02 in Rain , Thunderstorm Light Thunderstorms and Rain
12:15 PM 60.6 °F - 56.3 °F 86% 29.18 in 3.0 mi South 20.7 mph - 0.30 in Rain Heavy Rain
12:35 PM 58.5 °F - 54.3 °F 86% 29.28 in 2.0 mi West 44.9 mph 66.7 mph 0.78 in Rain , Thunderstorm Heavy Thunderstorms and Rain
2:15 PM 54.0 °F - 52.5 °F 95% 29.24 in 3.0 mi West 33.4 mph 42.6 mph N/A Rain Light Rain
2:35 PM 51.4 °F - 48.4 °F 89% 29.28 in 10.0 mi West 39.1 mph 46.0 mph N/A   Overcast
2:55 PM 48.6 °F - 44.2 °F 85% 29.33 in 7.0 mi West 34.5 mph 44.9 mph N/A   Overcast
3:15 PM 46.9 °F - 44.2 °F 90% 29.37 in 3.0 mi West 31.1 mph 46.0 mph N/A   Drizzle
3:35 PM 46.6 °F - 43.9 °F 90% 29.39 in 10.0 mi West 29.9 mph 36.8 mph N/A   Overcast
3:55 PM 46.8 °F - 43.3 °F 88% 29.42 in 10.0 mi West 29.9 mph 34.5 mph N/A   Overcast
4:15 PM 46.2 °F 36.8 °F 41.0 °F 82% 29.45 in 10.0 mi West 31.1 mph 46.0 mph N/A Rain Light Rain
4:35 PM 45.5 °F 36.5 °F 41.2 °F 85% 29.48 in 7.0 mi West 26.5 mph 40.3 mph N/A   Drizzle
4:55 PM 45.5 °F 36.3 °F 41.0 °F 84% 29.50 in 10.0 mi West 27.6 mph 36.8 mph N/A   Overcast
5:15 PM 45.7 °F 36.4 °F 40.6 °F 83% 29.52 in 10.0 mi West 28.8 mph 41.4 mph N/A   Overcast
5:35 PM 45.7 °F 36.4 °F 40.6 °F 83% 29.54 in 10.0 mi West 28.8 mph 36.8 mph N/A   Overcast
5:55 PM 45.7 °F 36.2 °F 40.6 °F 83% 29.56 in 10.0 mi West 29.9 mph 36.8 mph N/A   Overcast
6:15 PM 45.5 °F 36.7 °F 40.5 °F 83% 29.58 in 10.0 mi West 25.3 mph 32.2 mph N/A   Overcast
6:35 PM 45.5 °F 36.5 °F 40.8 °F 84% 29.59 in 10.0 mi West 26.5 mph 34.5 mph N/A   Overcast
6:55 PM 45.0 °F 36.0 °F 38.5 °F 78% 29.61 in 10.0 mi West 25.3 mph 39.1 mph N/A   Overcast
7:15 PM 44.6 °F 34.9 °F 37.4 °F 76% 29.62 in 10.0 mi WNW 28.8 mph 36.8 mph N/A   Overcast
7:35 PM 44.2 °F 35.7 °F 37.8 °F 78% 29.64 in 10.0 mi West 21.9 mph 38.0 mph N/A   Overcast
7:55 PM 43.3 °F 35.2 °F 37.0 °F 78% 29.66 in 10.0 mi West 18.4 mph 29.9 mph N/A   Mostly Cloudy
8:15 PM 42.6 °F 33.1 °F 36.0 °F 77% 29.67 in 10.0 mi West 24.2 mph 32.2 mph N/A   Scattered Clouds
8:35 PM 41.9 °F 32.8 °F 36.5 °F 81% 29.69 in 10.0 mi West 20.7 mph 27.6 mph N/A   Clear
8:55 PM 41.9 °F 32.6 °F 36.5 °F 81% 29.69 in 10.0 mi West 21.9 mph 26.5 mph N/A   Clear
9:15 PM 41.4 °F 32.1 °F 36.5 °F 83% 29.71 in 10.0 mi West 20.7 mph 28.8 mph N/A   Clear
9:35 PM 41.4 °F 31.4 °F 35.8 °F 81% 29.72 in 10.0 mi West 24.2 mph 29.9 mph N/A   Clear
9:55 PM 41.2 °F 32.1 °F 35.8 °F 81% 29.73 in 10.0 mi West 19.6 mph 27.6 mph N/A   Clear
10:15 PM 41.0 °F 31.9 °F 35.6 °F 81% 29.73 in 10.0 mi West 19.6 mph - N/A   Clear
10:35 PM 41.0 °F 32.5 °F 35.2 °F 80% 29.73 in 10.0 mi West 17.3 mph - N/A   Clear
10:55 PM 40.5 °F 31.5 °F 35.4 °F 82% 29.74 in 10.0 mi West 18.4 mph - N/A   Clear
11:15 PM 40.5 °F 31.2 °F 35.2 °F 82% 29.76 in 10.0 mi West 19.6 mph 25.3 mph N/A   Clear
11:35 PM 40.3 °F 32.2 °F 35.6 °F 83% 29.77 in 10.0 mi West 15.0 mph - N/A   Clear
11:55 PM 40.3 °F 30.7 °F 35.1 °F 82% 29.78 in 10.0 mi West 20.7 mph 25.3 mph N/A   Clear